Weather History for Harrisburg, PA

Change the Weather History Date:

Sunday, March 17, 2013

  Actual Average Record
Temperature  
Mean Temperature 34 °F -  
Max Temperature 39 °F 46 °F 82 °F (1945)
Min Temperature 30 °F 30 °F 11 °F (1900)
Degree Days  
Heating Degree Days 30    
Moisture  
Dew Point 24 °F    
Average Humidity 69    
Maximum Humidity 96    
Minimum Humidity 43    
Precipitation  
Precipitation 0.00 in - - ()
Sea Level Pressure  
Sea Level Pressure 30.12 in    
Wind  
Wind Speed 3 mph (NNW)    
Max Wind Speed 9 mph    
Max Gust Speed -    
Visibility 9 miles    
Events      
Averages and records for this station are not official NWS values.
T = Trace of Precipitation, MM = Missing Value Source: NWS Daily Summary

Daily Weather History Graph

Daily Weather History Graph

Search for Another Location

Airport:

Trip Planner

Search our weather history database for the weather conditions in past years. The results will help you decide how hot, cold, wet, or windy it might be!

Date:

Astronomy

Mar. 17, 2013 Rise Set
Actual Time 7:15 AM EDT 7:16 PM EDT
Civil Twilight 6:48 AM EDT 7:43 PM EDT
Nautical Twilight 6:16 AM EDT 8:15 PM EDT
Astronomical Twilight 5:44 AM EDT 8:47 PM EDT
Moon 10:25 AM EDT (3/17) 12:23 AM EDT (3/17)
Length of Visible Light 12h 55m
Length of Day
12h 01m
Waxing Crescent, 31% of the Moon is Illuminated
Mar 17
Waxing Crescent
Mar 19
First Quarter
Mar 27
Full
Apr 3
Last Quarter
Apr 10
New

Hourly Weather History & Observations

Time (EDT) Temp. Windchill Dew Point Humidity Pressure Visibility Wind Dir Wind Speed Gust Speed Precip Events Conditions
12:56 AM 32.0 °F 28.7 °F 30.0 °F 92% 29.96 in 9.0 mi West 3.5 mph - N/A   Clear
1:45 AM 33.8 °F 30.8 °F 28.4 °F 81% 29.95 in 10.0 mi NNW 3.5 mph - N/A   Mostly Cloudy
1:53 AM 33.8 °F 30.8 °F 28.4 °F 81% 29.95 in 10.0 mi NNW 3.5 mph - N/A   Scattered Clouds
1:56 AM 33.1 °F 30.0 °F 28.0 °F 82% 29.97 in 10.0 mi NNW 3.5 mph - N/A   Partly Cloudy
2:37 AM 32.0 °F - 28.4 °F 87% 29.97 in 10.0 mi Calm Calm - N/A   Overcast
2:56 AM 30.9 °F - 28.9 °F 92% 30.00 in 9.0 mi Calm Calm - N/A   Overcast
3:54 AM 32.0 °F - 30.2 °F 93% 29.98 in 7.0 mi Calm Calm - N/A   Overcast
3:56 AM 32.0 °F - 30.0 °F 92% 29.99 in 7.0 mi Calm Calm - N/A   Overcast
4:56 AM 32.0 °F - 30.9 °F 96% 30.00 in 6.0 mi Calm Calm - N/A   Overcast
5:56 AM 33.1 °F - 30.9 °F 92% 30.04 in 8.0 mi Calm Calm - N/A   Overcast
6:56 AM 33.1 °F 28.7 °F 30.0 °F 89% 30.06 in 7.0 mi NW 4.6 mph - N/A   Overcast
7:56 AM 34.0 °F - 27.0 °F 75% 30.12 in 10.0 mi Calm Calm - N/A   Overcast
8:56 AM 34.0 °F 28.8 °F 25.0 °F 70% 30.16 in 10.0 mi North 5.8 mph - N/A   Overcast
9:56 AM 33.1 °F 27.7 °F 26.1 °F 75% 30.16 in 10.0 mi NNW 5.8 mph - N/A   Overcast
10:26 AM 33.8 °F 29.6 °F 24.8 °F 70% 30.15 in 10.0 mi North 4.6 mph - N/A   Overcast
10:56 AM 34.0 °F 29.8 °F 21.9 °F 61% 30.18 in 10.0 mi NNW 4.6 mph - N/A   Overcast
11:56 AM 35.1 °F 29.3 °F 19.9 °F 54% 30.19 in 10.0 mi NNW 6.9 mph - N/A   Overcast
12:56 PM 37.0 °F 30.4 °F 19.9 °F 50% 30.20 in 10.0 mi NNW 9.2 mph - N/A   Clear
1:56 PM 37.9 °F 32.7 °F 19.0 °F 47% 30.18 in 10.0 mi Variable 6.9 mph - N/A   Partly Cloudy
2:56 PM 37.9 °F 34.4 °F 18.0 °F 45% 30.18 in 10.0 mi Variable 4.6 mph - N/A   Clear
3:56 PM 37.9 °F 35.5 °F 18.0 °F 45% 30.19 in 10.0 mi NW 3.5 mph - N/A   Partly Cloudy
4:56 PM 39.0 °F 35.7 °F 18.0 °F 43% 30.19 in 10.0 mi Variable 4.6 mph - N/A   Clear
5:56 PM 37.9 °F - 18.0 °F 45% 30.21 in 10.0 mi Calm Calm - N/A   Clear
6:56 PM 37.9 °F 35.5 °F 19.0 °F 47% 30.23 in 10.0 mi NNE 3.5 mph - N/A   Clear
7:56 PM 37.0 °F 33.3 °F 19.0 °F 48% 30.25 in 10.0 mi ENE 4.6 mph - N/A   Clear
8:56 PM 35.1 °F - 21.9 °F 59% 30.27 in 10.0 mi Calm Calm - N/A   Clear
9:56 PM 35.1 °F 32.2 °F 21.0 °F 57% 30.28 in 10.0 mi ESE 3.5 mph - N/A   Clear
10:56 PM 34.0 °F - 21.9 °F 61% 30.29 in 10.0 mi Calm Calm - N/A   Clear
11:56 PM 30.9 °F - 23.0 °F 72% 30.29 in 10.0 mi Calm Calm - N/A   Clear